W7KKE-3 Weather Reports


time (UTC)temp
F
wind
direction
speed
knots
gust
knots
rain 1hr
in
rain 24hr
in
rain mn
in
humidity
%
barometer
mb
20260502152144 54 315 2.6 7.0 0.00 0.00 0.00 81 1012.6
20260502151643 54 319 2.6 7.0 0.00 0.00 0.00 81 1012.6
20260502151144 54 350 3.5 7.0 0.00 0.00 0.00 81 1012.6
20260502150644 54 347 3.5 7.8 0.00 0.00 0.00 81 1012.7
20260502130649 53 329 1.7 8.7 0.00 0.00 0.00 82 1012.6
20260502130643 53 329 1.7 8.7 0.00 0.00 0.00 82 1012.6
20260502123643 53 333 4.3 7.0 0.00 0.00 0.00 82 1012.8
20260502123143 53 316 2.6 7.0 0.00 0.00 0.00 82 1012.7
20260502122644 53 306 1.7 8.7 0.00 0.00 0.00 82 1012.7
20260502122143 53 336 6.1 8.7 0.00 0.00 0.00 82 1012.7
20260502121644 53 310 3.5 8.7 0.00 0.00 0.00 82 1012.7
20260502121146 53 334 6.1 8.7 0.00 0.00 0.00 81 1012.9
20260502120643 53 317 5.2 8.7 0.00 0.00 0.00 81 1012.8
20260502115645 53 316 5.2 9.6 0.00 0.00 0.00 81 1012.8
20260502115143 52 357 0.9 9.6 0.00 0.00 0.00 81 1012.8
20260502114643 52 22 3.5 9.6 0.00 0.00 0.00 81 1012.8
20260502113643 52 340 3.5 5.2 0.00 0.00 0.00 81 1012.8
20260502113143 52 344 2.6 13.0 0.00 0.00 0.00 80 1012.8
20260502112144 52 316 6.1 13.0 0.00 0.00 0.00 80 1012.7
20260502111644 52 338 7.8 12.2 0.00 0.00 0.00 81 1012.8
20260502111144 52 329 2.6 10.4 0.00 0.00 0.00 81 1012.8
20260502110644 52 12 3.5 10.4 0.00 0.00 0.00 81 1012.7
20260502105144 52 327 5.2 12.2 0.00 0.00 0.00 81 1012.8
20260502104643 53 331 4.3 12.2 0.00 0.00 0.00 81 1013.0
20260502104144 53 303 7.8 12.2 0.00 0.00 0.00 81 1013.0
20260502103643 53 337 3.5 12.2 0.00 0.00 0.00 81 1013.0
20260502103215 53 317 7.0 12.2 0.00 0.00 0.00 81 1013.0
20260502103143 53 317 7.0 12.2 0.00 0.00 0.00 81 1013.0
20260502102645 52 343 5.2 13.0 0.00 0.00 0.00 81 1013.1
20260502102143 53 345 6.1 13.0 0.00 0.00 0.00 81 1013.1
20260502101144 52 331 6.1 13.0 0.00 0.00 0.00 81 1013.1
20260502100643 52 319 3.5 13.0 0.00 0.00 0.00 81 1013.2
20260502100143 52 323 4.3 13.0 0.00 0.00 0.00 81 1013.3
20260502091144 53 357 3.5 6.1 0.00 0.00 0.00 81 1013.7
20260502090643 53 343 0.0 6.1 0.00 0.00 0.00 81 1013.8
20260502071144 53 320 6.1 10.4 0.00 0.00 0.00 81 1014.3
20260502070643 53 345 4.3 10.4 0.00 0.00 0.00 81 1014.3
20260502065646 53 330 6.1 9.6 0.00 0.00 0.00 81 1014.3
20260502065144 53 316 5.2 9.6 0.00 0.00 0.00 81 1014.4
20260502064643 53 327 4.3 9.6 0.00 0.00 0.00 81 1014.5
20260502064147 53 1 5.2 9.6 0.00 0.00 0.00 81 1014.4
20260502063735 53 306 6.1 9.6 0.00 0.00 0.00 81 1014.5
20260502063643 53 306 6.1 9.6 0.00 0.00 0.00 81 1014.5
20260502063144 53 343 5.2 9.6 0.00 0.00 0.00 81 1014.5
20260502062643 53 327 6.1 6.1 0.00 0.00 0.00 81 1014.6
20260502062143 53 323 1.7 5.2 0.00 0.00 0.00 81 1014.6
20260502061644 53 329 3.5 11.3 0.00 0.00 0.00 81 1014.6
20260502061144 53 312 5.2 11.3 0.00 0.00 0.00 81 1014.6
20260502060643 53 333 4.3 11.3 0.00 0.00 0.00 81 1014.6
20260502055643 53 315 6.1 9.6 0.00 0.00 0.00 81 1014.7
20260502055144 53 308 5.2 13.0 0.00 0.00 0.00 81 1014.7
20260502054735 53 5 5.2 13.0 0.00 0.00 0.00 81 1014.6
20260502054643 53 5 5.2 13.0 0.00 0.00 0.00 81 1014.6
20260502054144 53 303 5.2 13.0 0.00 0.00 0.00 81 1014.6
20260502053643 53 324 6.1 10.4 0.00 0.00 0.00 81 1014.6
20260502053143 53 336 2.6 10.4 0.00 0.00 0.00 81 1014.6
20260502052643 53 23 6.1 13.9 0.00 0.00 0.00 81 1014.6
20260502052144 53 306 7.0 13.9 0.00 0.00 0.00 81 1014.6
20260502051644 53 331 7.0 13.9 0.00 0.00 0.00 82 1014.6
20260502050644 53 324 4.3 12.2 0.00 0.00 0.00 81 1014.6
20260502045143 53 313 6.1 14.8 0.00 0.00 0.00 81 1014.5
20260502044644 53 315 5.2 15.6 0.00 0.00 0.00 81 1014.4
20260502044146 53 22 8.7 15.6 0.00 0.00 0.00 81 1014.4
20260502043735 53 0 7.0 15.6 0.00 0.00 0.00 81 1014.4
20260502043643 53 0 7.0 15.6 0.00 0.00 0.00 81 1014.4
20260502043143 53 347 8.7 13.9 0.00 0.00 0.00 81 1014.5
20260502042645 53 347 9.6 13.9 0.00 0.00 0.00 82 1014.4
20260502042146 53 334 7.8 13.9 0.00 0.00 0.00 82 1014.4
20260502041644 53 323 7.0 13.9 0.00 0.00 0.00 82 1014.3
20260502041144 53 7 7.0 13.9 0.00 0.00 0.00 82 1014.4
20260502040644 53 310 7.0 12.2 0.00 0.00 0.00 82 1014.4
20260502035643 53 310 7.0 11.3 0.00 0.00 0.00 82 1014.3
20260502035143 53 334 6.1 10.4 0.00 0.00 0.00 82 1014.4
20260502034643 53 334 7.8 10.4 0.00 0.00 0.00 81 1014.3
20260502034146 54 326 7.0 13.9 0.00 0.00 0.00 81 1014.4
20260502033643 53 344 7.8 13.9 0.00 0.00 0.00 81 1014.3
20260502033144 54 334 5.2 13.9 0.00 0.00 0.00 81 1014.3
20260502032645 53 323 7.0 12.2 0.00 0.00 0.00 81 1014.3
20260502032144 54 317 7.0 12.2 0.00 0.00 0.00 82 1014.3
20260502031644 54 303 7.0 12.2 0.00 0.00 0.00 82 1014.3
20260502031145 54 347 7.8 13.0 0.00 0.00 0.00 81 1014.3
20260502030644 54 4 7.0 13.0 0.00 0.00 0.00 81 1014.3
20260502025144 54 348 6.1 12.2 0.00 0.00 0.00 81 1014.2
20260502024643 54 323 7.8 10.4 0.00 0.00 0.00 81 1014.1
20260502024146 54 316 6.1 12.2 0.00 0.00 0.00 81 1014.0
20260502023644 54 329 6.1 12.2 0.00 0.00 0.00 81 1014.0
20260502023145 54 330 6.1 12.2 0.00 0.00 0.00 81 1014.0
20260502022144 54 352 5.2 10.4 0.00 0.00 0.00 82 1014.0
20260502021644 54 323 5.2 10.4 0.00 0.00 0.00 82 1013.9
20260502020643 54 343 6.1 9.6 0.00 0.00 0.00 82 1014.0
20260502020144 54 344 6.1 9.6 0.00 0.00 0.00 82 1014.0
20260502015643 54 327 6.1 13.9 0.00 0.00 0.00 82 1013.9
20260502015144 54 344 7.0 13.9 0.00 0.00 0.00 82 1013.9
20260502014643 54 344 7.0 13.9 0.00 0.00 0.00 82 1014.0
20260502014146 55 326 4.3 12.2 0.00 0.00 0.00 82 1014.0
20260502013643 55 324 6.1 12.2 0.00 0.00 0.00 81 1013.9
20260502013143 55 337 6.1 10.4 0.00 0.00 0.00 82 1014.0
20260502012644 55 344 6.1 13.9 0.00 0.00 0.00 82 1014.0
20260502012144 55 334 6.1 13.9 0.00 0.00 0.00 82 1014.0
20260502011644 55 317 8.7 13.9 0.00 0.00 0.00 82 1014.0
20260502011146 55 4 8.7 13.0 0.00 0.00 0.00 82 1013.9
20260502010643 55 336 7.0 13.0 0.00 0.00 0.00 82 1013.9
20260502010144 55 324 6.1 12.2 0.00 0.00 0.00 82 1013.9
20260502005645 55 305 7.0 12.2 0.00 0.00 0.00 82 1014.0
20260502005144 55 338 7.0 12.2 0.00 0.00 0.00 82 1014.0
20260502004643 56 327 6.1 12.2 0.00 0.00 0.00 82 1014.0
20260502004146 56 357 8.7 12.2 0.00 0.00 0.00 82 1014.0
20260502003643 56 313 5.2 12.2 0.00 0.00 0.00 82 1014.0
20260502003143 56 357 8.7 12.2 0.00 0.00 0.00 82 1014.0
20260502002645 56 322 7.8 13.0 0.00 0.00 0.00 82 1014.0
20260502002143 56 345 6.1 13.0 0.00 0.00 0.00 82 1014.0
20260502001643 56 1 6.1 13.0 0.00 0.00 0.00 81 1014.0
20260502001146 56 4 7.0 10.4 0.00 0.00 0.00 81 1014.1
20260502000643 56 319 5.2 10.4 0.00 0.00 0.00 81 1014.0
20260501235144 56 329 6.1 12.2 0.00 0.00 0.00 81 1014.0
20260501234644 57 330 8.7 9.6 0.00 0.00 0.00 81 1014.1
20260501234146 57 299 4.3 10.4 0.00 0.00 0.00 81 1014.1
20260501233643 57 331 6.1 10.4 0.00 0.00 0.00 81 1014.1
20260501233143 57 327 5.2 10.4 0.00 0.00 0.00 80 1014.1
20260501232643 57 340 5.2 8.7 0.00 0.00 0.00 80 1014.2
20260501232144 57 333 6.1 10.4 0.00 0.00 0.00 80 1014.2
20260501231643 57 334 6.1 10.4 0.00 0.00 0.00 80 1014.2
20260501230644 57 326 7.0 11.3 0.00 0.00 0.00 79 1014.3
20260501225643 57 320 7.0 11.3 0.00 0.00 0.00 79 1014.4
20260501225143 58 333 5.2 10.4 0.00 0.00 0.00 79 1014.5
20260501224643 58 324 6.1 10.4 0.00 0.00 0.00 79 1014.5
20260501224144 58 337 7.0 12.2 0.00 0.00 0.00 79 1014.5
20260501223643 58 317 7.0 12.2 0.00 0.00 0.00 79 1014.5
20260501223144 57 327 7.8 12.2 0.00 0.00 0.00 79 1014.5
20260501222643 58 317 7.0 11.3 0.00 0.00 0.00 79 1014.5
20260501222144 58 313 8.7 13.0 0.00 0.00 0.00 79 1014.6
20260501221644 58 324 7.8 13.0 0.00 0.00 0.00 79 1014.6
20260501221146 58 330 7.0 13.0 0.00 0.00 0.00 79 1014.7
20260501220644 58 317 6.1 11.3 0.00 0.00 0.00 79 1014.7
20260501220143 58 319 6.1 11.3 0.00 0.00 0.00 79 1014.6
20260501215643 58 322 7.0 11.3 0.00 0.00 0.00 79 1014.7
20260501215142 58 338 6.1 11.3 0.00 0.00 0.00 79 1014.7
20260501214642 58 313 6.1 11.3 0.00 0.00 0.00 79 1014.7
20260501213642 58 333 6.1 13.0 0.00 0.00 0.00 80 1014.8
20260501213143 58 343 6.1 13.0 0.00 0.00 0.00 80 1014.8
20260501212643 58 329 6.1 12.2 0.00 0.00 0.00 80 1014.8
20260501212143 58 331 7.8 12.2 0.00 0.00 0.00 80 1014.9
20260501211644 58 324 6.1 12.2 0.00 0.00 0.00 79 1014.8
20260501211145 58 331 7.8 11.3 0.00 0.00 0.00 79 1014.8
20260501210644 58 351 6.1 11.3 0.00 0.00 0.00 80 1014.8
20260501210144 58 292 6.1 10.4 0.00 0.00 0.00 79 1014.8
20260501205643 58 330 6.1 8.7 0.00 0.00 0.00 79 1014.7
20260501205144 58 323 5.2 8.7 0.00 0.00 0.00 79 1014.8
20260501204645 58 331 5.2 8.7 0.00 0.00 0.00 79 1014.8
20260501204146 58 330 5.2 8.7 0.00 0.00 0.00 79 1014.9
20260501203644 58 309 4.3 9.6 0.00 0.00 0.00 78 1014.8
20260501202645 58 326 6.1 9.6 0.00 0.00 0.00 78 1014.9
20260501202144 58 310 5.2 10.4 0.00 0.00 0.00 78 1014.9
20260501201642 58 317 6.1 10.4 0.00 0.00 0.00 78 1014.8
20260501201146 58 320 6.1 10.4 0.00 0.00 0.00 78 1014.8
20260501200644 58 308 7.8 13.9 0.00 0.00 0.00 77 1014.8
20260501200143 58 329 7.0 13.9 0.00 0.00 0.00 77 1014.8
20260501195144 58 315 7.0 12.2 0.00 0.00 0.00 78 1014.8
20260501194146 58 323 4.3 12.2 0.00 0.00 0.00 78 1014.9
20260501193642 59 315 6.1 11.3 0.00 0.00 0.00 78 1014.9
20260501193143 59 313 5.2 10.4 0.00 0.00 0.00 78 1014.9
20260501192643 59 309 7.8 10.4 0.00 0.00 0.00 77 1014.9
20260501192144 59 313 6.1 10.4 0.00 0.00 0.00 78 1014.9
20260501191644 59 329 6.1 11.3 0.00 0.00 0.00 77 1014.9
20260501191146 60 327 7.0 11.3 0.00 0.00 0.00 77 1015.0
20260501190642 60 315 6.1 11.3 0.00 0.00 0.00 78 1015.1
20260501190144 60 345 7.8 10.4 0.00 0.00 0.00 78 1015.2
20260501185643 60 347 7.0 9.6 0.00 0.00 0.00 78 1015.1
20260501185143 60 322 7.0 10.4 0.00 0.00 0.00 78 1015.1
20260501184644 60 333 6.1 10.4 0.00 0.00 0.00 78 1015.1
20260501184146 59 341 5.2 10.4 0.00 0.00 0.00 78 1015.1
20260501183643 59 336 7.0 12.2 0.00 0.00 0.00 80 1015.1
20260501183142 58 7 7.0 12.2 0.00 0.00 0.00 80 1015.0
20260501182643 58 322 7.0 12.2 0.00 0.00 0.00 80 1015.0
20260501182144 58 329 7.8 11.3 0.00 0.00 0.00 80 1014.9
20260501181642 57 316 6.1 11.3 0.00 0.00 0.00 81 1015.0
20260501181146 57 323 7.0 11.3 0.00 0.00 0.00 81 1014.9
20260501180643 57 312 7.0 8.7 0.00 0.00 0.00 81 1014.9
20260501180144 57 309 3.5 6.1 0.00 0.00 0.00 82 1014.9
20260501175644 57 302 3.5 6.1 0.00 0.00 0.00 82 1014.9
20260501175143 57 341 3.5 6.1 0.00 0.00 0.00 82 1014.9
20260501174642 57 303 4.3 6.1 0.00 0.00 0.00 82 1014.9
20260501173642 57 316 2.6 7.8 0.00 0.00 0.00 82 1014.9
20260501173142 57 331 4.3 7.8 0.00 0.00 0.00 82 1014.8
20260501172644 57 329 3.5 7.8 0.00 0.00 0.00 81 1014.8
20260501172144 57 303 2.6 7.8 0.00 0.00 0.00 81 1014.8
20260501171643 57 306 5.2 7.8 0.00 0.00 0.00 81 1014.8
20260501171143 57 1 5.2 12.2 0.00 0.00 0.00 81 1014.7
20260501170644 57 326 7.0 12.2 0.00 0.00 0.00 81 1014.5
20260501170144 57 341 7.0 12.2 0.00 0.00 0.00 80 1014.4
20260501165645 57 313 6.1 10.4 0.00 0.00 0.00 80 1014.3
20260501165142 57 327 7.8 13.0 0.00 0.00 0.00 81 1014.3
20260501164642 57 338 7.0 13.0 0.00 0.00 0.00 81 1014.3
20260501164145 57 336 4.3 13.0 0.00 0.00 0.00 81 1014.2
20260501163143 57 295 4.3 9.6 0.00 0.00 0.00 81 1014.3
20260501162643 57 355 5.2 9.6 0.00 0.00 0.00 82 1014.4
20260501162144 56 350 0.9 9.6 0.00 0.00 0.00 82 1014.4
20260501161644 56 319 7.0 9.6 0.00 0.00 0.00 82 1014.5
20260501161146 56 319 6.1 9.6 0.00 0.00 0.00 82 1014.5
20260501160642 56 11 4.3 9.6 0.00 0.00 0.00 83 1014.5
20260501160144 56 320 6.1 13.0 0.00 0.00 0.00 83 1014.5
20260501155645 55 348 4.3 13.0 0.00 0.00 0.00 83 1014.4
20260501155143 55 317 7.8 13.0 0.00 0.00 0.00 83 1014.3
20260501154644 55 326 7.8 12.2 0.00 0.00 0.00 83 1014.2
20260501154147 55 338 8.7 11.3 0.00 0.00 0.00 83 1014.2
20260501153642 55 326 7.0 11.3 0.00 0.00 0.00 83 1014.1